"Pseudo-MPEC" for C8K63M2

Created 2022 Dec 10 12:22:05 UT using Find_Orb

Click here for an explanation of pseudo-MPECs

 
 Astrometry: 
     C8K63M2*1C2022 11 30.43386707 56 24.508+12 04 21.25   ~BUBM 20.65GVNEOCPG96
     C8K63M2 1C2022 11 30.43903107 56 27.686+12 05 11.40   ~BUBM 20.55GVNEOCPG96
     C8K63M2 1C2022 11 30.44419207 56 30.890+12 06 01.04   ~BUBM 20.59GVNEOCPG96
     C8K63M2 1C2022 11 30.44935607 56 34.084+12 06 51.05   ~BUBM 20.98GVNEOCPG96
     C8K63M2 mC2022 11 30.53001707 57 24.360+12 19 47.60   ~BUD7 20.76GVNEOCPI52
     C8K63M2 mC2022 11 30.53078907 57 24.790+12 19 54.60   ~BUD7 21.09GVNEOCPI52
     C8K63M2 1C2022 11 30.53622307 57 28.267+12 20 47.47   ~BUDM 20.53GVNEOCPG96
     C8K63M2 1C2022 11 30.53712007 57 28.832+12 20 56.18   ~BUDM 20.70GVNEOCPG96
     C8K63M2 1C2022 11 30.53801607 57 29.430+12 21 04.21   ~BUDM 20.10GVNEOCPG96
     C8K63M2 KC2022 12 01P$Astrometry7redacted;cEBf%U9Rwclicko$`chere2e#QOPy3H21
     C8K63M2 KC2022 12 01dRfor;!XK3b)$explanationL(Fl-V+9S9=*$A6-Kit6ui7-n%owH21
     C8K63M2 mC2022 12 01.47589108 08 27.035+14 56 31.85   ~C1Bb       VNEOCPI52
     C8K63M2 mC2022 12 01.47632708 08 27.337+14 56 36.13   ~C1Bb 20.96GVNEOCPI52
     C8K63M2 mC2022 12 01.47676408 08 27.582+14 56 40.09   ~C1Bb 21.00GVNEOCPI52

Station data:
(G96) Mt. Lemmon Survey  (N32.442751 W110.788720)  US/Arizona.  Observers T.
   A. Pruyne, B. M. Africano, E. J. Christensen, G. A. Farneth, D. C. Fuls,
   A. R. Gibbs, A. D. Grauer, H. Gröller, J. A. Johnson, R. A. Kowalski, S.
   M. Larson, G. J. Leonard, D. Rankin, R. L. Seaman, F. C. Shelly, K. W.
   Wierzchoś. 1.5-m reflector + 10K CCD.
(H21) Astronomical Research Observatory, Westfield  (N39.483054 W87.968270)
   US/Illinois.  Observer R. Holmes. Measurers S. Foglia, L. Buzzi, T.
   Linder, R. Holmes. 0.76-m f/3.0 astrograph + CCD0.81-m f/4.0 astrograph +
   CCD0.61-m f/4.5 astrograph + CCD0.40-m f/5.32 astrograph + CCD.
(I52) Steward Observatory, Mt. Lemmon Station  (N32.442544 W110.788920)
   US/Arizona.  Observers T. A. Pruyne, B. M. Africano, E. J. Christensen, G.
   A. Farneth, D. C. Fuls, A. R. Gibbs, A. D. Grauer, H. Gröller, J. A.
   Johnson, R. A. Kowalski, S. M. Larson, G. J. Leonard, D. Rankin, R. L.
   Seaman, F. C. Shelly, K. W. Wierzchoś. 1.0-m reflector + CCD.

Orbital elements:  C8K63M2
   Perihelion 2023 Jan 6.85964 +/- 0.247 TT = 20:37:52 (JD 2459951.35964)
Epoch 2022 Dec  1.0 TT = JDT 2459914.5   Earth MOID: 0.0329   Ma: 0.0218
M 333.98117489 +/- 0.23             (J2000 ecliptic)             AutoNEOCP
n   0.70588929 +/- 0.0019           Peri.   37.81402 +/- 0.27
a   1.24923742 +/- 0.00224          Node    73.11649 +/- 0.010
e   0.2118905 +/- 0.00118           Incl.   11.87804 +/- 0.046
P   1.40/509.99d           H 25.08  G  0.15   U  8.5
q 0.98453581 +/- 0.000457    Q 1.51393903 +/- 0.00416
From 14 observations 2022 Nov. 30-Dec. 1 (25.0 hr); mean residual 0".30
Residuals in arcseconds: 
221130 G96  .27+  .04-    221130 I52  .77-  .50-    221201 H21  .24-  .46+    
221130 G96  .02+  .27+    221130 G96  .01-  .12+    221201 I52  .21+  .04+    
221130 G96  .16+  .10+    221130 G96  .02-  .21+    221201 I52  .34+  .10-    
221130 G96  .12+  .28+    221130 G96  .45+  .37-    221201 I52  .36-  .57-    
221130 I52  .05+  .07-    221201 H21  .10+  .12+    

Ephemerides (geocentric):
Date (UTC) HH   RA             Dec           delta  r     elong  mag " sig PA
---- --------  ------------   ------------  ------ ------ -----  --- --------
2022 12 10 12  10 32 56.788   +39 42 28.55  .06048 1.0080 110.9 21.4 9.82  69
2022 12 10 13  10 33 43.840   +39 47 24.53  .06054 1.0079 110.8 21.4 9.88  69
2022 12 10 14  10 34 30.903   +39 52 18.77  .06060 1.0079 110.7 21.4 9.94  69
2022 12 10 15  10 35 17.976   +39 57 11.27  .06066 1.0078 110.6 21.4 10.0  69
2022 12 10 16  10 36 05.057   +40 02 02.01  .06072 1.0077 110.6 21.4 10.1  69
2022 12 10 17  10 36 52.145   +40 06 51.01  .06078 1.0077 110.5 21.4 10.1  69
2022 12 10 18  10 37 39.239   +40 11 38.26  .06084 1.0076 110.4 21.4 10.2  69
2022 12 10 19  10 38 26.338   +40 16 23.75  .06091 1.0075 110.3 21.4 10.2  69
2022 12 10 20  10 39 13.442   +40 21 07.49  .06097 1.0074 110.2 21.4 10.3  69
2022 12 10 21  10 40 00.549   +40 25 49.47  .06103 1.0074 110.1 21.4 10.3  70
2022 12 10 22  10 40 47.658   +40 30 29.70  .06110 1.0073 110.0 21.4 10.4  70
2022 12 10 23  10 41 34.767   +40 35 08.17  .06116 1.0072 109.9 21.4 10.5  70
2022 12 11 00  10 42 21.877   +40 39 44.89  .06123 1.0072 109.8 21.4 10.5  70
2022 12 11 01  10 43 08.986   +40 44 19.84  .06129 1.0071 109.7 21.4 10.6  70
2022 12 11 02  10 43 56.093   +40 48 53.04  .06136 1.0070 109.6 21.4 10.6  70
2022 12 11 03  10 44 43.197   +40 53 24.48  .06142 1.0070 109.6 21.4 10.7  70
2022 12 11 04  10 45 30.296   +40 57 54.16  .06149 1.0069 109.5 21.5 10.7  70
2022 12 11 05  10 46 17.390   +41 02 22.08  .06156 1.0068 109.4 21.5 10.8  70
2022 12 11 06  10 47 04.478   +41 06 48.24  .06163 1.0068 109.3 21.5 10.8  70
2022 12 11 07  10 47 51.559   +41 11 12.65  .06170 1.0067 109.2 21.5 10.9  71
2022 12 11 08  10 48 38.631   +41 15 35.29  .06176 1.0066 109.1 21.5 11.0  71
2022 12 11 09  10 49 25.694   +41 19 56.18  .06183 1.0066 109.0 21.5 11.0  71
2022 12 11 10  10 50 12.747   +41 24 15.31  .06190 1.0065 108.9 21.5 11.1  71
2022 12 11 11  10 50 59.788   +41 28 32.68  .06197 1.0064 108.8 21.5 11.1  71
2022 12 11 12  10 51 46.817   +41 32 48.30  .06204 1.0064 108.8 21.5 11.2  71
2022 12 11 13  10 52 33.832   +41 37 02.17  .06212 1.0063 108.7 21.5 11.2  71
2022 12 11 14  10 53 20.832   +41 41 14.28  .06219 1.0062 108.6 21.5 11.3  71
2022 12 11 15  10 54 07.817   +41 45 24.64  .06226 1.0062 108.5 21.5 11.3  71
2022 12 11 16  10 54 54.786   +41 49 33.25  .06233 1.0061 108.4 21.5 11.4  72
2022 12 11 17  10 55 41.737   +41 53 40.12  .06241 1.0060 108.3 21.5 11.4  72
2022 12 11 18  10 56 28.669   +41 57 45.23  .06248 1.0060 108.2 21.5 11.5  72
2022 12 11 19  10 57 15.581   +42 01 48.60  .06255 1.0059 108.1 21.5 11.5  72
2022 12 11 20  10 58 02.473   +42 05 50.23  .06263 1.0058 108.0 21.5 11.6  72
2022 12 11 21  10 58 49.343   +42 09 50.12  .06270 1.0058 108.0 21.5 11.6  72
2022 12 11 22  10 59 36.191   +42 13 48.27  .06278 1.0057 107.9 21.5 11.7  72
2022 12 11 23  11 00 23.015   +42 17 44.69  .06286 1.0056 107.8 21.5 11.7  72
2022 12 12 00  11 01 09.814   +42 21 39.37  .06293 1.0056 107.7 21.6 11.8  72
2022 12 12 01  11 01 56.587   +42 25 32.32  .06301 1.0055 107.6 21.6 11.8  72
2022 12 12 02  11 02 43.333   +42 29 23.54  .06309 1.0054 107.5 21.6 11.9  73
2022 12 12 03  11 03 30.052   +42 33 13.04  .06316 1.0054 107.4 21.6 12.0  73
2022 12 12 04  11 04 16.743   +42 37 00.81  .06324 1.0053 107.3 21.6 12.0  73
2022 12 12 05  11 05 03.403   +42 40 46.87  .06332 1.0052 107.3 21.6 12.0  73
2022 12 12 06  11 05 50.033   +42 44 31.21  .06340 1.0052 107.2 21.6 12.1  73
2022 12 12 07  11 06 36.631   +42 48 13.84  .06348 1.0051 107.1 21.6 12.1  73
2022 12 12 08  11 07 23.196   +42 51 54.76  .06356 1.0050 107.0 21.6 12.2  73
2022 12 12 09  11 08 09.728   +42 55 33.97  .06364 1.0050 106.9 21.6 12.2  73
2022 12 12 10  11 08 56.226   +42 59 11.48  .06372 1.0049 106.8 21.6 12.3  74
2022 12 12 11  11 09 42.688   +43 02 47.29  .06380 1.0048 106.8 21.6 12.3  74